CW5532 Weather Reports


Display with metric or nautical units.
time (UTC)temp
F
wind
direction
speed
MPH
gust
MPH
rain 1hr
in
rain 24hr
in
rain mn
in
humidity
%
barometer
mb
20260906043722 62 252 0.0 0.0 0.00 0.00 0.00 78 1018.8
20260906040223 63 252 0.0 0.0 0.00 0.00 0.00 78 1018.6
20260906033723 64 252 0.0 0.0 0.00 0.00 0.00 78 1018.6
20260906030722 64 252 0.0 0.0 0.00 0.00 0.00 78 1018.7
20260906030222 64 252 0.0 0.0 0.00 0.00 0.00 77 1018.7
20260906020722 66 252 0.0 0.0 0.00 0.00 0.00 76 1018.6
20260906013222 67 224 0.0 0.0 0.00 0.00 0.00 74 1018.6
20260906003722 69 259 0.0 0.0 0.00 0.00 0.00 73 1018.8
20260906000722 70 259 0.0 0.0 0.00 0.00 0.00 71 1018.7
20260905230722 72 264 0.0 0.0 0.00 0.00 0.00 68 1018.9
20260905230222 72 251 0.0 0.0 0.00 0.00 0.00 69 1019.0
20260905223722 74 227 0.0 0.0 0.00 0.00 0.00 67 1019.0
20260905223222 74 223 0.0 0.0 0.00 0.00 0.00 67 1019.0
20260905220723 74 263 0.0 0.0 0.00 0.00 0.00 66 1019.0
20260905220222 74 262 0.0 0.0 0.00 0.00 0.00 65 1019.2
20260905213721 75 238 0.0 0.0 0.00 0.00 0.00 64 1019.2
20260905213221 75 238 0.0 0.0 0.00 0.00 0.00 64 1019.2
20260905210721 75 229 0.0 0.0 0.00 0.00 0.00 65 1019.2
20260905203721 76 121 0.0 0.0 0.00 0.00 0.00 62 1019.5
20260905200721 79 121 0.0 0.0 0.00 0.00 0.00 57 1019.3
20260905193221 81 121 0.0 0.0 0.00 0.00 0.00 54 1019.0
20260905190722 83 121 0.0 0.0 0.00 0.00 0.00 51 1018.6
20260905180721 87 114 2.0 6.0 0.00 0.00 0.00 48 1018.0
20260905180221 87 119 0.0 3.0 0.00 0.00 0.00 47 1018.3
20260905173721 90 96 0.0 0.0 0.00 0.00 0.00 43 1018.0
20260905173221 90 91 0.0 5.0 0.00 0.00 0.00 42 1018.0
20260905170221 93 148 1.0 16.0 0.00 0.00 0.00 40 1017.7
20260905163221 94 228 3.0 12.0 0.00 0.00 0.00 39 1017.2
20260905153721 97 160 6.0 12.0 0.00 0.00 0.00 36 1017.0
20260905153221 97 137 5.0 16.0 0.00 0.00 0.00 36 1017.0
20260905150221 97 145 5.0 14.0 0.00 0.00 0.00 36 1016.9
20260905143721 97 177 4.0 12.0 0.00 0.00 0.00 36 1017.1
20260905120720 98 151 6.0 12.0 0.00 0.00 0.00 33 1017.8
20260905113221 96 149 4.0 10.0 0.00 0.00 0.00 36 1018.2
20260905110721 95 120 5.0 9.0 0.00 0.00 0.00 37 1018.5
20260905103720 93 123 4.0 7.0 0.00 0.00 0.00 41 1018.7
20260905103220 92 91 4.0 10.0 0.00 0.00 0.00 41 1018.7
20260905100720 91 99 2.0 5.0 0.00 0.00 0.00 46 1019.0
20260905093720 87 97 0.0 0.0 0.00 0.00 0.00 56 1019.3
20260905093220 86 98 0.0 0.0 0.00 0.00 0.00 58 1019.3
20260905090720 82 101 0.0 0.0 0.00 0.00 0.00 67 1019.6
20260905083220 80 86 0.0 0.0 0.00 0.00 0.00 68 1019.4
20260905080720 79 78 0.0 0.0 0.00 0.00 0.00 69 1019.3
20260905073219 77 257 0.0 0.0 0.00 0.00 0.00 69 1019.2
20260905063219 68 256 0.0 0.0 0.00 0.00 0.00 79 1019.2
20260905060719 64 247 0.0 0.0 0.00 0.00 0.00 80 1019.3
20260905060219 64 238 0.0 0.0 0.00 0.00 0.00 80 1019.1
20260905053719 63 241 0.0 0.0 0.00 0.00 0.00 80 1019.0
20260905053220 64 236 0.0 0.0 0.00 0.00 0.00 80 1018.9
20260905050720 64 242 0.0 0.0 0.00 0.00 0.00 80 1018.7